TimeEST,TemperatureF,Dew PointF,Humidity,Sea Level PressureIn,VisibilityMPH,Wind Direction,Wind SpeedMPH,Gust SpeedMPH,PrecipitationIn,Events,Conditions,WindDirDegrees,DateUTC
12:15 AM,33.8,33.8,100,29.96,5.0,NE,6.9,-,N/A,,Overcast,40,2013-12-21 05:15:00
12:35 AM,33.8,33.8,100,29.94,5.0,NNE,8.1,-,N/A,,Overcast,30,2013-12-21 05:35:00
12:55 AM,33.8,32.0,93,29.94,5.0,NNE,8.1,-,N/A,,Overcast,30,2013-12-21 05:55:00
1:15 AM,33.8,32.0,93,29.95,5.0,NNE,8.1,-,N/A,,Overcast,30,2013-12-21 06:15:00
1:35 AM,32.0,32.0,100,29.95,6.0,NE,6.9,-,N/A,,Overcast,40,2013-12-21 06:35:00
1:55 AM,32.0,30.2,93,29.95,4.0,NE,8.1,-,0.02,,Overcast,40,2013-12-21 06:55:00
2:15 AM,32.0,32.0,100,29.95,3.0,NNE,6.9,-,0.03,,Overcast,30,2013-12-21 07:15:00
2:35 AM,32.0,32.0,100,29.95,5.0,NE,5.8,-,0.04,,Overcast,40,2013-12-21 07:35:00
2:55 AM,32.0,32.0,100,29.95,7.0,NNE,8.1,-,0.04,,Overcast,30,2013-12-21 07:55:00
3:15 AM,32.0,30.2,93,29.94,5.0,NE,8.1,-,0.01,,Overcast,40,2013-12-21 08:15:00
3:35 AM,30.2,30.2,100,29.93,8.0,NE,9.2,-,0.01,,Overcast,40,2013-12-21 08:35:00
3:55 AM,30.2,28.4,93,29.92,8.0,NE,11.5,-,0.01,,Overcast,40,2013-12-21 08:55:00
4:15 AM,30.2,30.2,100,29.93,8.0,NNE,6.9,-,N/A,,Overcast,30,2013-12-21 09:15:00
4:35 AM,30.2,30.2,100,29.93,8.0,NNE,10.4,-,N/A,,Overcast,30,2013-12-21 09:35:00
4:55 AM,30.2,30.2,100,29.93,10.0,NNE,9.2,-,N/A,,Overcast,30,2013-12-21 09:55:00
5:15 AM,30.2,30.2,100,29.93,10.0,NE,6.9,-,N/A,,Overcast,40,2013-12-21 10:15:00
5:35 AM,30.2,30.2,100,29.94,8.0,NNE,6.9,-,N/A,,Overcast,30,2013-12-21 10:35:00
5:55 AM,30.2,30.2,100,29.93,8.0,NE,8.1,-,N/A,,Overcast,40,2013-12-21 10:55:00
6:15 AM,30.2,30.2,100,29.92,7.0,NE,9.2,-,N/A,,Overcast,50,2013-12-21 11:15:00
6:35 AM,30.2,30.2,100,29.94,8.0,NNE,8.1,-,N/A,,Overcast,30,2013-12-21 11:35:00
6:55 AM,30.2,28.4,93,29.93,7.0,NNE,6.9,-,N/A,,Overcast,30,2013-12-21 11:55:00
7:15 AM,30.2,30.2,100,29.93,5.0,NNE,5.8,-,N/A,,Overcast,20,2013-12-21 12:15:00
7:35 AM,30.2,30.2,100,29.92,5.0,NE,6.9,-,N/A,,Overcast,50,2013-12-21 12:35:00
7:55 AM,30.2,30.2,100,29.93,4.0,NNE,5.8,-,N/A,,Overcast,20,2013-12-21 12:55:00
8:15 AM,30.2,30.2,100,29.93,5.0,NNE,3.5,-,N/A,,Overcast,30,2013-12-21 13:15:00
8:35 AM,30.2,30.2,100,29.93,4.0,Calm,Calm,-,N/A,,Overcast,0,2013-12-21 13:35:00
8:55 AM,30.2,30.2,100,29.91,4.0,East,4.6,-,N/A,,Overcast,80,2013-12-21 13:55:00
9:15 AM,30.2,30.2,100,29.94,4.0,NNE,3.5,-,N/A,,Overcast,20,2013-12-21 14:15:00
9:35 AM,30.2,30.2,100,29.93,4.0,NE,9.2,-,N/A,,Overcast,50,2013-12-21 14:35:00
9:55 AM,32.0,30.2,93,29.96,4.0,Calm,Calm,-,N/A,,Overcast,0,2013-12-21 14:55:00
10:15 AM,32.0,30.2,93,29.94,3.0,NE,3.5,-,N/A,,Overcast,50,2013-12-21 15:15:00
10:35 AM,32.0,30.2,93,29.94,3.0,Calm,Calm,-,N/A,,Overcast,0,2013-12-21 15:35:00
10:55 AM,32.0,32.0,100,29.91,3.0,Calm,Calm,-,N/A,,Overcast,0,2013-12-21 15:55:00
11:15 AM,32.0,32.0,100,29.93,3.0,NNE,3.5,-,N/A,,Overcast,20,2013-12-21 16:15:00
11:35 AM,32.0,32.0,100,29.89,3.0,Calm,Calm,-,N/A,,Mostly Cloudy,0,2013-12-21 16:35:00
11:55 AM,33.8,32.0,93,29.89,4.0,Calm,Calm,-,N/A,,Partly Cloudy,0,2013-12-21 16:55:00
12:15 PM,33.8,33.8,100,29.87,4.0,Calm,Calm,-,N/A,,Clear,0,2013-12-21 17:15:00
12:35 PM,33.8,33.8,100,29.85,5.0,Calm,Calm,-,N/A,,Scattered Clouds,0,2013-12-21 17:35:00
12:55 PM,33.8,33.8,100,29.84,5.0,Calm,Calm,-,N/A,,Mostly Cloudy,0,2013-12-21 17:55:00
1:15 PM,33.8,32.0,93,29.84,5.0,Calm,Calm,-,N/A,,Overcast,0,2013-12-21 18:15:00
1:35 PM,35.6,33.8,93,29.85,6.0,Calm,Calm,-,N/A,,Overcast,0,2013-12-21 18:35:00
1:55 PM,35.6,35.6,100,29.84,6.0,Calm,Calm,-,N/A,,Overcast,0,2013-12-21 18:55:00
2:15 PM,35.6,35.6,100,29.87,5.0,Calm,Calm,-,N/A,,Overcast,0,2013-12-21 19:15:00
2:35 PM,35.6,35.6,100,29.87,5.0,Calm,Calm,-,N/A,,Overcast,0,2013-12-21 19:35:00
2:55 PM,35.6,35.6,100,29.87,4.0,Calm,Calm,-,N/A,,Mostly Cloudy,0,2013-12-21 19:55:00
3:15 PM,35.6,35.6,100,29.86,5.0,Calm,Calm,-,N/A,,Overcast,0,2013-12-21 20:15:00
3:35 PM,35.6,35.6,100,29.88,5.0,Calm,Calm,-,N/A,,Overcast,0,2013-12-21 20:35:00
3:55 PM,35.6,35.6,100,29.89,4.0,Calm,Calm,-,N/A,,Overcast,0,2013-12-21 20:55:00
4:15 PM,35.6,35.6,100,29.89,3.0,Calm,Calm,-,N/A,,Overcast,0,2013-12-21 21:15:00
4:35 PM,35.6,33.8,93,29.89,5.0,Calm,Calm,-,N/A,,Overcast,0,2013-12-21 21:35:00
4:55 PM,35.6,35.6,100,29.89,4.0,Calm,Calm,-,N/A,,Overcast,0,2013-12-21 21:55:00
5:15 PM,35.6,33.8,93,29.89,2.0,Calm,Calm,-,N/A,,Overcast,0,2013-12-21 22:15:00
5:35 PM,35.6,35.6,100,29.89,1.8,Calm,Calm,-,N/A,,Overcast,0,2013-12-21 22:35:00
5:55 PM,35.6,33.8,93,29.89,0.8,Calm,Calm,-,0.01,,Overcast,0,2013-12-21 22:55:00
6:15 PM,37.4,37.4,100,29.89,1.8,Calm,Calm,-,0.01,,Overcast,0,2013-12-21 23:15:00
6:35 PM,35.6,35.6,100,29.91,1.8,North,5.8,-,0.01,,Overcast,10,2013-12-21 23:35:00
6:55 PM,37.4,37.4,100,29.92,2.0,NNE,5.8,-,0.02,,Overcast,20,2013-12-21 23:55:00
7:15 PM,37.4,37.4,100,29.93,3.0,NNE,6.9,-,0.03,,Overcast,30,2013-12-22 00:15:00
7:35 PM,35.6,33.8,93,29.93,2.5,NNE,8.1,-,0.04,,Overcast,20,2013-12-22 00:35:00
7:55 PM,35.6,33.8,93,29.93,2.5,NE,8.1,-,0.04,,Overcast,40,2013-12-22 00:55:00
8:15 PM,35.6,35.6,100,29.93,4.0,NNE,6.9,-,N/A,,Overcast,30,2013-12-22 01:15:00
8:35 PM,35.6,33.8,93,29.93,5.0,NNE,6.9,-,N/A,,Overcast,30,2013-12-22 01:35:00
8:55 PM,35.6,33.8,93,29.93,5.0,NE,8.1,-,N/A,,Overcast,40,2013-12-22 01:55:00
9:15 PM,33.8,33.8,100,29.94,6.0,NNE,9.2,-,N/A,,Overcast,30,2013-12-22 02:15:00
9:35 PM,33.8,33.8,100,29.94,7.0,NE,9.2,-,N/A,,Overcast,40,2013-12-22 02:35:00
9:55 PM,33.8,33.8,100,29.94,8.0,NE,12.7,16.1,N/A,,Overcast,40,2013-12-22 02:55:00
10:15 PM,33.8,33.8,100,29.95,9.0,NE,11.5,16.1,N/A,,Overcast,50,2013-12-22 03:15:00
10:35 PM,33.8,33.8,100,29.95,10.0,NNE,10.4,-,N/A,,Overcast,30,2013-12-22 03:35:00
10:55 PM,33.8,33.8,100,29.95,10.0,NNE,11.5,16.1,N/A,,Overcast,30,2013-12-22 03:55:00
11:15 PM,33.8,33.8,100,29.94,10.0,NE,12.7,18.4,N/A,,Overcast,40,2013-12-22 04:15:00
11:35 PM,33.8,33.8,100,29.94,10.0,NE,12.7,18.4,N/A,,Overcast,40,2013-12-22 04:35:00
11:55 PM,33.8,32.0,93,29.95,10.0,NNE,11.5,17.3,N/A,,Overcast,30,2013-12-22 04:55:00